CSA899 LKPR-LKTB

Flight info

Callsign CSA899
Flight time 0h 27m
Altitude 19000
Route VOZ4B/30 VOZ DCT TUMKA
Aircraft A320/M-SDE3FGHIRWY/LB1

Departure

Time 2026-05-07 18:30
Airport Václav Havel Airport Prague (LKPR)

Arrival

Time 2026-05-07 18:57
Airport Brno-Tuřany Airport (LKTB)
Time Latitude Longitude Altitude Speed Heading
2026-05-07 18:09 50.10371 14.26748 1174 ft 0 kts 34°
2026-05-07 18:17 50.10362 14.26739 1174 ft 2 kts 34°
2026-05-07 18:17 50.10349 14.26724 1145 ft 2 kts 33°
2026-05-07 18:18 50.10333 14.26716 1173 ft 2 kts 334°
2026-05-07 18:18 50.10320 14.26730 1169 ft 2 kts 316°
2026-05-07 18:18 50.10316 14.26736 1169 ft 0 kts 315°
2026-05-07 18:22 50.10317 14.26734 1174 ft 0 kts 315°
2026-05-07 18:22 50.10330 14.26704 1172 ft 8 kts 304°
2026-05-07 18:23 50.10330 14.26611 1171 ft 10 kts 221°
2026-05-07 18:23 50.10266 14.26535 1173 ft 14 kts 213°
2026-05-07 18:23 50.10221 14.26561 1177 ft 9 kts 127°
2026-05-07 18:23 50.10147 14.26707 1177 ft 24 kts 126°
2026-05-07 18:24 50.10052 14.26890 1191 ft 16 kts 132°
2026-05-07 18:24 50.10007 14.26979 1196 ft 6 kts 123°
2026-05-07 18:24 50.09996 14.27006 1197 ft 1 kts 122°
2026-05-07 18:24 50.09976 14.27056 1198 ft 7 kts 121°
2026-05-07 18:25 50.09961 14.27096 1199 ft 3 kts 123°
2026-05-07 18:25 50.09937 14.27149 1200 ft 9 kts 124°
2026-05-07 18:25 50.09885 14.27260 1201 ft 16 kts 128°
2026-05-07 18:25 50.09792 14.27406 1204 ft 22 kts 135°
2026-05-07 18:26 50.09671 14.27594 1207 ft 27 kts 136°
2026-05-07 18:26 50.09531 14.27803 1212 ft 27 kts 136°
2026-05-07 18:26 50.09407 14.27994 1215 ft 24 kts 135°
2026-05-07 18:26 50.09296 14.28169 1214 ft 21 kts 134°
2026-05-07 18:27 50.09185 14.28273 1211 ft 16 kts 177°
2026-05-07 18:27 50.09155 14.28262 1211 ft 0 kts 204°
2026-05-07 18:27 50.09153 14.28261 1211 ft 3 kts 204°
2026-05-07 18:28 50.09086 14.28181 1210 ft 16 kts 242°
2026-05-07 18:28 50.09108 14.28032 1209 ft 13 kts 306°
2026-05-07 18:28 50.09117 14.28014 1209 ft 0 kts 306°
2026-05-07 18:29 50.09118 14.28010 1209 ft 6 kts 306°
2026-05-07 18:29 50.09295 14.27640 1213 ft 77 kts 306°
2026-05-07 18:29 50.09743 14.26719 1208 ft 133 kts 307°
2026-05-07 18:30 50.10369 14.25383 1437 ft 159 kts 305°
2026-05-07 18:30 50.11043 14.23984 2128 ft 165 kts 308°
2026-05-07 18:30 50.11756 14.22554 2831 ft 169 kts 309°
2026-05-07 18:30 50.12526 14.21061 3259 ft 187 kts 310°
2026-05-07 18:31 50.13395 14.19426 3643 ft 205 kts 310°
2026-05-07 18:31 50.14356 14.17664 4037 ft 224 kts 310°
2026-05-07 18:31 50.15428 14.15706 4408 ft 249 kts 308°
2026-05-07 18:31 50.16553 14.13548 5058 ft 263 kts 308°
2026-05-07 18:32 50.17643 14.11305 5990 ft 263 kts 302°
2026-05-07 18:32 50.18324 14.08640 6880 ft 264 kts 275°
2026-05-07 18:32 50.18152 14.05793 7708 ft 268 kts 252°
2026-05-07 18:32 50.17248 14.03247 8540 ft 272 kts 229°
2026-05-07 18:33 50.15726 14.01483 9363 ft 278 kts 204°
2026-05-07 18:33 50.13814 14.00919 10180 ft 285 kts 178°
2026-05-07 18:33 50.11900 14.01774 10920 ft 294 kts 152°
2026-05-07 18:33 50.10258 14.03795 11216 ft 318 kts 139°
2026-05-07 18:34 50.08653 14.06155 11518 ft 336 kts 137°
2026-05-07 18:34 50.06960 14.08722 12153 ft 343 kts 137°
2026-05-07 18:34 50.05239 14.11349 12887 ft 347 kts 137°
2026-05-07 18:34 50.03502 14.13982 13617 ft 351 kts 137°
2026-05-07 18:35 50.01730 14.16645 14284 ft 355 kts 138°
2026-05-07 18:35 49.99944 14.19304 14928 ft 358 kts 138°
2026-05-07 18:35 49.98142 14.21975 15749 ft 352 kts 138°
2026-05-07 18:35 49.96403 14.24545 16746 ft 346 kts 138°
2026-05-07 18:36 49.94624 14.27159 16959 ft 361 kts 139°
2026-05-07 18:36 49.92772 14.29875 17441 ft 371 kts 138°
2026-05-07 18:36 49.90885 14.32648 18013 ft 376 kts 138°
2026-05-07 18:36 49.88977 14.35461 18572 ft 380 kts 138°
2026-05-07 18:37 49.87224 14.38054 18205 ft 386 kts 138°
2026-05-07 18:37 49.85324 14.40853 18711 ft 374 kts 139°
2026-05-07 18:37 49.83433 14.43623 18951 ft 381 kts 139°
2026-05-07 18:38 49.81503 14.46444 19008 ft 379 kts 139°
2026-05-07 18:38 49.79590 14.49239 19015 ft 378 kts 139°
2026-05-07 18:38 49.77677 14.52035 19017 ft 378 kts 139°
2026-05-07 18:38 49.75765 14.54830 19014 ft 378 kts 139°
2026-05-07 18:39 49.73853 14.57622 19015 ft 378 kts 140°
2026-05-07 18:39 49.71936 14.60408 19020 ft 378 kts 140°
2026-05-07 18:39 49.70020 14.63185 19020 ft 377 kts 140°
2026-05-07 18:39 49.68113 14.65950 19012 ft 372 kts 140°
2026-05-07 18:40 49.66268 14.68634 19011 ft 357 kts 140°
2026-05-07 18:40 49.64490 14.71218 19011 ft 344 kts 140°
2026-05-07 18:40 49.62701 14.73804 19016 ft 364 kts 140°
2026-05-07 18:40 49.60820 14.76509 19008 ft 374 kts 140°
2026-05-07 18:41 49.58906 14.79260 19014 ft 376 kts 140°
2026-05-07 18:41 49.56991 14.82018 19010 ft 377 kts 140°
2026-05-07 18:41 49.55167 14.84931 19009 ft 380 kts 131°
2026-05-07 18:41 49.53730 14.88369 19008 ft 384 kts 119°
2026-05-07 18:42 49.52768 14.92207 19011 ft 387 kts 107°
2026-05-07 18:42 49.52256 14.96287 19013 ft 389 kts 101°
2026-05-07 18:42 49.51807 15.00392 19010 ft 389 kts 102°
2026-05-07 18:42 49.51348 15.04479 19008 ft 388 kts 102°
2026-05-07 18:43 49.50880 15.08576 19004 ft 388 kts 102°
2026-05-07 18:43 49.50417 15.12618 18985 ft 387 kts 102°
2026-05-07 18:43 49.49959 15.16643 18736 ft 378 kts 102°
2026-05-07 18:43 49.49511 15.20579 18496 ft 370 kts 102°
2026-05-07 18:44 49.49070 15.24439 18248 ft 364 kts 102°
2026-05-07 18:44 49.48626 15.28302 17973 ft 361 kts 102°
2026-05-07 18:44 49.48196 15.32038 17701 ft 359 kts 102°
2026-05-07 18:44 49.47760 15.35814 17433 ft 357 kts 103°
2026-05-07 18:45 49.47327 15.39575 17166 ft 356 kts 103°
2026-05-07 18:45 49.46894 15.43311 16899 ft 354 kts 103°
2026-05-07 18:45 49.46461 15.47028 16625 ft 351 kts 103°
2026-05-07 18:45 49.46030 15.50705 16216 ft 349 kts 103°
2026-05-07 18:46 49.45600 15.54373 15785 ft 348 kts 103°
2026-05-07 18:46 49.45168 15.58041 15357 ft 348 kts 103°
2026-05-07 18:46 49.44738 15.61698 14927 ft 347 kts 103°
2026-05-07 18:46 49.44307 15.65352 14497 ft 347 kts 103°
2026-05-07 18:47 49.43872 15.68998 14066 ft 347 kts 103°
2026-05-07 18:47 49.43437 15.72645 13614 ft 347 kts 103°
2026-05-07 18:47 49.43000 15.76291 13175 ft 367 kts 103°
2026-05-07 18:47 49.42527 15.80247 12722 ft 381 kts 102°
2026-05-07 18:48 49.42047 15.84264 12272 ft 379 kts 102°
2026-05-07 18:48 49.41576 15.88208 11831 ft 373 kts 102°
2026-05-07 18:48 49.41107 15.92087 11472 ft 364 kts 103°
2026-05-07 18:48 49.40390 15.95703 11123 ft 345 kts 116°
2026-05-07 18:49 49.39282 15.98904 10374 ft 337 kts 122°
2026-05-07 18:49 49.38149 16.01946 10075 ft 317 kts 122°
2026-05-07 18:49 49.37091 16.04793 9749 ft 301 kts 122°
2026-05-07 18:49 49.36059 16.07559 9461 ft 295 kts 122°
2026-05-07 18:50 49.35038 16.10291 9245 ft 294 kts 122°
2026-05-07 18:50 49.34023 16.13004 8878 ft 293 kts 122°
2026-05-07 18:50 49.33017 16.15699 8502 ft 291 kts 122°
2026-05-07 18:50 49.31914 16.18276 8122 ft 287 kts 131°
2026-05-07 18:51 49.30675 16.20660 7751 ft 286 kts 131°
2026-05-07 18:51 49.29437 16.23034 7384 ft 284 kts 131°
2026-05-07 18:51 49.28214 16.25374 7043 ft 281 kts 131°
2026-05-07 18:51 49.26998 16.27698 6682 ft 278 kts 131°
2026-05-07 18:52 49.25806 16.29975 6323 ft 276 kts 130°
2026-05-07 18:52 49.24612 16.32256 5957 ft 273 kts 130°
2026-05-07 18:52 49.23428 16.34500 5592 ft 270 kts 133°
2026-05-07 18:52 49.22013 16.36317 5246 ft 263 kts 151°
2026-05-07 18:53 49.20444 16.37707 4893 ft 259 kts 152°
2026-05-07 18:53 49.18904 16.39103 4541 ft 255 kts 147°
2026-05-07 18:53 49.17737 16.41096 4201 ft 253 kts 116°
2026-05-07 18:53 49.17312 16.43657 3844 ft 250 kts 96°
2026-05-07 18:54 49.17090 16.46302 3513 ft 248 kts 96°
2026-05-07 18:54 49.16873 16.48898 3184 ft 245 kts 96°
2026-05-07 18:54 49.16656 16.51468 2854 ft 243 kts 96°
2026-05-07 18:54 49.16445 16.53972 2528 ft 230 kts 95°
2026-05-07 18:55 49.16245 16.56322 2218 ft 219 kts 95°
2026-05-07 18:55 49.16052 16.58572 1971 ft 206 kts 95°
2026-05-07 18:55 49.15874 16.60658 1725 ft 191 kts 96°
2026-05-07 18:55 49.15711 16.62578 1510 ft 175 kts 96°
2026-05-07 18:56 49.15614 16.63749 1390 ft 164 kts 97°
2026-05-07 18:56 49.15437 16.65950 1017 ft 149 kts 98°
2026-05-07 18:56 49.15353 16.66966 889 ft 141 kts 100°
2026-05-07 18:56 49.15212 16.68387 782 ft 129 kts 99°
2026-05-07 18:57 49.15113 16.69578 767 ft 91 kts 97°
2026-05-07 18:57 49.15054 16.70276 762 ft 41 kts 96°
2026-05-07 18:57 49.15056 16.70465 762 ft 3 kts 24°
2026-05-07 18:57 49.15069 16.70474 763 ft 0 kts 23°
2026-05-07 18:58 49.15089 16.70485 764 ft 7 kts 19°
2026-05-07 18:58 49.15107 16.70490 766 ft 0 kts
2026-05-07 18:58 49.15109 16.70490 766 ft 2 kts
2026-05-07 18:58 49.15151 16.70497 770 ft 5 kts
2026-05-07 18:59 49.15205 16.70502 771 ft 9 kts 349°
2026-05-07 18:59 49.15231 16.70430 771 ft 7 kts 280°
2026-05-07 18:59 49.15240 16.70344 769 ft 11 kts 279°
2026-05-07 18:59 49.15255 16.70191 769 ft 16 kts 276°
2026-05-07 19:00 49.15267 16.70034 769 ft 14 kts 277°
2026-05-07 19:00 49.15278 16.69888 769 ft 14 kts 277°
2026-05-07 19:00 49.15290 16.69745 769 ft 13 kts 277°
2026-05-07 19:00 49.15301 16.69617 769 ft 11 kts 277°
2026-05-07 19:01 49.15310 16.69505 769 ft 10 kts 278°
2026-05-07 19:01 49.15319 16.69408 767 ft 9 kts 278°
2026-05-07 19:01 49.15327 16.69324 767 ft 7 kts 278°
2026-05-07 19:01 49.15347 16.69261 767 ft 7 kts 330°
2026-05-07 19:02 49.15375 16.69232 767 ft 2 kts 270°
2026-05-07 19:02 49.15367 16.69232 767 ft 0 kts 185°